Tracking 31027 objects as of 19-Jul-2025
HD Live streaming from Space Station
objects crossing your sky now

STARLINK-5946

Track STARLINK-5946 now!
10-day predictions
STARLINK-5946 is classified as:


NORAD ID: 55990
Int'l Code: 2023-042E
Perigee: 565.3 km
Apogee: 567.2 km
Inclination: 43.0 °
Period: 95.8 minutes
Semi major axis: 6937 km
RCS: Unknown
Launch date: March 24, 2022
Source: United States (US)
Launch site: AIR FORCE EASTERN TEST RANGE (AFETR)
Your satellite tracking list
ONEWEB-0142
Track 1 satellite(s)




NASA's NSSDC Master Catalog

Two Line Element Set (TLE):
1 55990U 23042E   25199.53415273 -.00000434  00000-0 -17039-4 0  9992
2 55990  43.0035 248.7658 0001374 276.8996  83.1690 15.02531844128020
Source of the keplerian elements: AFSPC